Location: Ford County Road and Bridge Department
(37.7686°N, 99.9762°W)
Time: 06:17:49
(UTC+00:00)

DMSP B5D1-3 - Pass Details

Date: 18 January 2020
Orbit: 767 x 781 km, 98.5° (Epoch: 17 February)

Event Time Altitude Azimuth Distance (km) Brightness Sun altitude
Exits shadow 01:11:59 - 17° (NNE) 2,704 7.0 -16.7°
Reaches altitude 10° 01:12:59 10° 19° (NNE) 2,312 6.7 -16.9°
Maximum altitude 01:18:03 68° 102° (ESE) 827 4.4 -17.8°
Drops below altitude 10° 01:23:05 10° 185° (S) 2,300 7.2 -18.8°
Sets 01:25:24 0° 188° (S) 3,223 8.0 -19.3°
